Vorticity
12 13 13 12 11 9 8 8 8 8 11 15 17 18 17 15 18 20 20 19 17 16 15 15 16 17 18 19 19 20 20 19 18 16 15 14 12 13 13 11 10 10 9 9 9 10 10 11 13 12 13 13 14 17 18 28 28 14 3 -0 5 3 3 4 4 7 9 14 8 8 8 4 12 5 2 10 9 11 8 10 14 13 15 11 8 10 11 10
12 12 12 12 12 11 9 8 9 8 10 14 16 17 15 15 17 18 18 18 17 16 16 17 17 18 18 18 17 16 15 14 13 13 14 12 10 11 11 10 8 9 9 10 10 10 11 12 14 12 12 12 15 20 22 27 19 2 -2 0 4 1 3 5 3 5 4 6 4 7 7 2 10 5 1 9 11 10 10 19 16 10 10 7 9 11 12 11
11 10 11 13 14 13 11 10 9 8 10 13 15 15 15 16 18 17 17 17 16 16 17 17 16 15 14 13 12 11 11 10 11 11 12 9 8 10 9 9 9 9 9 11 12 11 13 14 13 11 12 15 19 21 22 22 10 -3 -2 1 3 2 3 4 4 4 2 9 5 -2 -2 -0 8 8 4 7 7 4 8 21 17 9 9 10 13 11 9 10
8 8 9 11 14 15 14 12 10 9 10 13 13 14 15 17 19 18 17 17 16 16 15 14 12 10 9 9 9 10 10 10 10 9 9 8 8 9 9 10 9 9 9 11 14 13 15 14 13 14 15 18 18 16 16 12 1 -4 -0 2 3 1 2 3 2 0 1 7 6 -1 1 7 11 7 4 1 -2 2 9 17 16 13 11 10 10 8 9 10
5 7 8 8 12 16 17 14 12 10 10 13 13 13 14 17 18 18 17 16 15 13 12 11 9 8 8 8 8 9 10 10 10 8 9 10 10 10 10 10 9 9 8 11 12 12 14 13 14 14 11 11 9 10 13 4 -5 -1 3 1 2 -0 -0 2 0 -1 -1 -3 -2 4 8 8 6 0 -3 -7 -8 3 12 13 15 16 9 4 4 4 6 7
5 6 5 5 9 13 16 16 14 12 11 13 14 14 13 14 16 16 15 14 13 11 10 9 8 7 7 7 8 9 10 10 10 10 11 12 12 12 11 9 9 8 7 8 9 11 13 14 14 9 7 8 5 8 12 7 -2 0 4 0 -0 -1 -3 0 2 -0 -1 2 -2 -1 6 5 2 -2 -4 -6 -5 7 13 11 18 18 4 2 6 4 4 5
5 4 3 5 7 8 12 15 16 15 13 13 15 14 12 12 13 13 12 11 11 10 9 8 6 6 6 7 8 9 10 10 9 11 11 12 13 13 11 9 9 9 7 7 9 11 11 13 14 9 12 15 11 6 6 6 1 1 4 2 -1 -1 -2 -2 4 4 4 7 2 3 8 2 -2 -2 -0 -2 -2 8 12 12 18 16 5 5 11 8 6 7
4 3 3 6 5 6 7 11 15 17 16 15 16 14 13 12 11 10 10 10 9 8 7 6 5 5 6 6 7 9 10 7 5 7 8 10 12 12 12 12 13 14 12 9 8 9 13 19 16 10 15 20 14 1 -2 4 3 3 5 4 2 1 0 -3 -2 3 7 6 4 17 18 2 -1 -1 -2 -2 -1 1 4 10 13 11 9 5 7 8 4 6
4 3 4 5 4 4 5 7 10 15 17 17 16 14 13 11 9 8 8 8 8 8 7 6 6 5 6 5 5 8 9 6 7 7 6 6 7 9 15 18 18 16 12 9 7 9 17 23 18 9 9 17 16 2 -2 3 1 2 4 3 4 2 1 1 1 2 8 10 6 12 10 -1 -0 -0 0 3 3 -0 0 9 9 8 12 5 1 4 4 4
5 4 4 4 3 4 5 5 6 11 14 16 17 16 14 10 8 7 7 8 7 8 7 6 6 4 6 4 4 7 6 5 7 7 6 5 4 3 7 11 13 12 8 6 9 11 13 16 21 15 9 11 10 4 2 1 1 3 2 2 4 1 -1 3 7 5 3 8 6 5 4 3 5 3 6 8 5 3 2 8 7 3 8 9 7 4 5 7
6 5 4 3 2 4 5 5 6 8 10 13 16 16 15 11 9 7 7 7 7 8 8 7 7 5 4 4 5 5 4 5 5 6 6 7 7 4 1 -1 1 2 2 2 3 4 2 5 14 15 15 13 3 1 5 4 2 1 -1 2 1 -2 0 1 4 4 -1 2 6 8 7 5 3 2 5 6 6 6 2 3 4 2 6 11 12 6 5 8
7 6 4 3 2 4 5 5 6 6 8 10 12 15 15 12 10 8 7 7 7 8 8 7 7 6 5 5 6 5 5 6 6 5 5 5 7 7 6 4 1 -1 -1 1 -1 -1 0 3 5 5 15 20 10 2 4 2 -2 -2 1 1 -5 -5 1 0 1 5 4 7 8 8 8 6 4 3 6 7 6 7 4 1 5 10 12 12 10 6 6 9
7 6 5 3 2 4 4 5 6 6 7 8 9 11 12 11 10 8 7 7 7 8 9 9 8 7 6 6 7 6 7 7 7 7 7 7 7 6 8 7 4 2 2 3 2 1 3 6 3 3 9 15 16 10 4 0 -5 -2 3 -0 -6 -3 -0 -5 2 12 10 11 10 9 9 10 11 8 8 11 6 3 3 2 7 15 15 11 7 3 7 11
6 6 5 4 3 4 4 5 5 5 7 8 7 8 9 10 8 7 7 7 8 8 9 9 9 9 8 7 7 7 7 7 7 7 7 8 7 7 8 8 5 5 5 4 5 3 2 4 3 8 11 9 14 17 11 3 -2 -1 2 2 -2 -2 -1 -7 7 20 13 9 11 11 9 7 12 10 8 12 8 1 3 7 10 12 7 1 3 5 8 12
6 6 5 4 4 4 5 5 5 5 6 8 7 7 7 8 7 6 6 6 7 7 8 9 9 9 8 9 8 7 6 6 7 7 8 8 8 9 8 9 7 6 6 5 6 5 2 5 4 7 9 8 12 17 16 10 5 3 1 4 4 4 6 4 13 17 7 7 8 8 8 6 10 12 10 10 9 6 4 5 5 3 1 -2 3 3 4 11
6 6 6 5 4 5 5 5 5 4 5 7 8 8 7 7 8 8 7 7 7 7 7 7 8 8 7 8 8 8 8 8 8 8 8 7 7 7 6 6 7 6 6 6 7 6 4 8 9 8 8 9 10 13 17 14 11 9 7 12 15 14 11 10 18 12 3 7 6 8 9 6 9 11 11 7 7 7 -1 -1 -1 -5 -2 2 4 1 1 8
6 6 7 6 5 5 5 5 5 4 4 6 7 8 8 8 8 8 8 8 7 7 7 6 7 8 6 8 9 9 9 8 7 5 4 5 4 3 2 3 5 5 5 5 7 8 8 10 9 8 10 11 8 8 13 14 10 8 9 14 15 14 11 11 17 7 3 8 5 10 10 6 9 7 8 7 5 4 -0 2 2 -2 -1 1 1 -3 -4 -0
6 6 6 7 6 5 6 5 6 6 5 5 6 7 7 8 8 9 8 8 8 7 8 8 9 9 7 8 10 8 7 5 4 4 3 5 6 6 5 6 9 11 11 11 11 10 10 11 6 4 10 13 9 7 10 11 11 8 9 13 10 8 5 10 16 4 0 9 7 9 10 10 12 5 3 6 5 4 4 5 3 3 5 3 2 -2 -2 1
5 5 5 6 5 5 5 5 5 6 6 5 5 5 5 5 5 7 7 8 10 9 9 10 11 11 9 9 9 7 7 6 6 5 5 7 10 12 14 11 9 10 11 10 12 13 14 14 12 10 11 11 8 6 7 7 9 7 7 10 9 8 3 5 13 8 2 9 9 5 6 9 10 7 5 3 4 6 7 3 0 3 2 0 3 2 2 3
4 4 4 4 4 4 4 4 4 5 5 6 5 5 5 5 4 4 6 7 7 7 7 9 10 11 10 9 9 9 8 8 10 10 9 10 9 10 14 11 7 7 4 3 5 8 10 10 11 12 9 9 11 11 11 11 11 11 9 10 7 5 6 4 7 12 8 6 7 2 1 5 4 5 7 5 4 5 6 2 -0 3 -0 -2 8 9 -1 -2
3 3 3 4 4 3 3 4 4 4 5 5 4 4 4 5 4 3 5 5 5 6 6 6 7 7 7 8 10 12 11 9 11 12 10 9 6 5 7 7 7 10 9 7 5 2 6 9 7 9 9 12 17 17 16 15 16 19 20 24 24 14 10 6 2 10 12 4 3 4 2 3 5 5 5 5 2 2 5 4 3 9 8 -1 6 16 3 -4
3 3 3 3 4 4 3 4 4 4 5 5 4 5 4 5 6 5 5 4 4 5 4 4 5 5 5 5 7 9 9 7 9 10 7 6 7 6 5 4 5 8 9 11 12 9 12 14 9 9 9 10 12 12 10 10 12 17 18 24 35 33 26 16 5 4 10 5 -1 5 7 2 5 7 5 8 7 4 5 9 9 10 17 8 3 20 4 -13
3 3 2 2 4 4 3 3 4 4 5 5 4 4 5 6 8 9 7 6 6 6 5 6 6 5 4 5 6 6 5 4 5 6 5 4 7 7 4 4 6 9 10 10 12 12 12 10 8 9 9 8 7 6 6 8 9 12 17 22 28 35 35 29 18 7 5 7 1 2 6 1 1 3 2 8 13 7 2 17 23 5 10 15 17 46 33 -0
4 4 3 2 3 4 3 3 3 4 4 4 4 3 4 5 6 7 7 8 9 7 6 7 7 6 5 5 7 6 4 4 4 5 5 4 6 7 6 7 10 13 14 9 7 8 7 6 6 7 7 5 6 8 9 10 10 8 16 26 25 31 36 30 26 20 8 4 4 3 4 2 1 -1 -1 4 10 9 0 12 25 4 -1 2 3 32 36 7
4 4 4 3 3 4 4 3 3 4 3 3 3 3 4 5 5 5 5 7 10 10 9 8 7 7 7 9 8 4 4 6 6 6 6 7 9 7 6 8 10 11 11 7 5 6 6 6 6 6 6 8 10 14 13 12 14 13 14 19 20 26 36 32 27 30 19 4 1 1 -0 3 2 -1 0 1 5 11 0 -6 4 -3 -7 -2 -2 6 11 4
4 4 5 5 4 5 4 3 4 3 3 4 4 4 3 5 8 9 6 3 4 7 9 9 9 10 11 11 9 4 5 8 8 9 9 8 9 8 5 6 7 6 6 7 6 5 6 6 7 6 8 11 13 14 14 15 17 19 16 13 15 21 30 33 30 33 32 20 15 11 -1 -2 3 -0 0 1 1 8 4 -3 1 -2 -7 -2 3 2 1 3
5 4 5 6 5 6 5 4 4 3 4 5 5 5 4 4 7 9 7 4 6 5 4 7 9 12 14 13 9 6 7 6 5 9 11 9 9 8 5 6 8 6 5 7 6 5 7 7 6 7 8 11 16 17 16 17 15 16 18 15 17 20 19 24 27 28 30 26 28 27 8 -1 4 2 0 2 2 2 4 4 4 4 3 2 2 2 3 5
5 5 6 6 6 6 6 5 4 4 4 4 5 5 6 7 6 6 4 6 12 9 4 5 5 8 12 11 9 7 5 4 5 8 10 12 12 10 8 7 7 5 4 6 6 5 7 6 6 8 8 9 18 21 16 16 12 9 17 22 22 21 17 20 23 22 22 18 19 24 17 6 3 2 2 3 2 2 3 2 2 2 4 4 3 3 5 6
7 7 6 6 6 6 6 7 6 5 5 5 5 4 5 7 8 7 4 5 9 7 6 7 6 8 10 10 10 6 1 1 4 4 6 11 10 8 11 9 5 5 5 5 6 6 7 8 7 7 8 9 14 17 14 15 16 9 12 22 24 21 15 18 23 19 16 14 12 18 23 15 3 1 5 6 4 4 2 1 2 3 3 2 2 5 7 7
9 8 7 5 7 8 7 8 8 6 7 8 8 8 7 7 8 9 6 5 7 6 7 7 9 12 9 8 11 8 3 4 4 4 5 11 14 15 15 9 5 8 8 6 7 7 9 10 7 5 8 8 9 14 15 13 16 14 12 17 23 24 18 17 22 20 14 11 9 13 21 19 6 1 5 6 5 5 3 2 2 2 4 4 6 8 5 2
11 7 7 6 7 9 7 7 8 7 7 9 10 10 9 7 8 8 7 7 8 7 8 7 9 12 7 6 10 9 8 10 8 8 7 9 13 13 11 8 8 12 10 8 10 8 9 11 7 5 8 7 5 9 12 12 13 14 13 15 20 24 24 22 21 20 16 11 7 8 15 15 8 3 1 -1 0 4 4 4 4 5 6 6 6 4 -1 -0
10 7 7 7 7 9 8 6 7 7 8 9 9 9 9 8 8 9 9 9 8 8 10 9 8 10 8 8 11 9 9 11 9 8 7 6 7 4 1 4 11 15 11 9 10 8 9 11 7 5 6 5 5 4 5 9 12 11 10 14 17 17 21 23 21 19 16 13 10 9 11 10 6 2 -4 -6 1 7 7 6 6 6 5 5 4 0 -2 1
9 8 7 8 7 8 9 7 6 7 8 9 9 7 8 8 8 8 9 8 8 9 11 9 8 9 9 8 11 9 9 11 10 9 9 10 11 8 6 8 11 13 11 9 9 9 9 10 8 6 5 4 6 7 6 7 10 9 8 10 13 12 13 14 15 16 17 17 17 14 13 12 9 5 2 3 6 6 6 7 7 6 5 4 3 3 3 5
8 7 7 9 9 8 8 8 6 6 7 8 9 9 8 8 8 8 9 7 8 10 10 9 9 11 12 11 11 12 12 13 13 13 13 12 13 13 12 11 10 10 10 9 10 10 10 9 9 6 3 4 7 7 8 9 9 9 9 9 10 11 12 11 11 14 15 17 18 16 14 14 14 12 9 8 7 5 5 6 6 7 7 6 7 9 10 12
7 7 7 10 10 8 9 8 5 5 7 7 8 9 8 7 8 8 8 8 8 8 7 8 11 13 14 13 12 13 13 14 14 13 12 10 10 10 8 7 9 8 9 9 10 11 11 10 11 8 4 6 8 6 8 11 9 9 10 10 10 10 12 12 11 13 15 17 20 19 15 13 15 14 11 7 6 7 8 8 8 8 8 9 10 10 11 12
6 7 7 9 10 8 8 8 7 7 8 7 8 9 8 7 7 7 8 9 8 7 6 7 10 12 13 13 12 12 12 13 14 12 10 8 8 9 7 6 9 8 8 9 9 10 10 10 12 11 6 7 8 7 9 9 7 8 9 10 11 9 10 12 12 12 12 14 17 17 15 16 17 14 12 13 13 13 12 10 10 9 10 11 9 9 11 13
5 7 7 8 10 10 7 7 9 8 7 7 7 8 7 7 8 8 8 9 7 6 6 6 8 10 12 13 13 12 11 11 12 12 11 9 9 10 9 8 9 10 9 9 9 10 10 10 12 13 10 9 9 10 9 6 5 8 8 8 9 8 9 10 11 11 8 8 10 10 10 12 13 12 11 11 11 11 9 9 10 11 11 12 12 13 15 14
5 7 7 7 10 11 7 7 9 9 7 7 8 7 5 6 8 9 8 7 6 5 5 5 6 7 8 10 11 11 10 9 9 9 10 10 9 10 10 9 10 11 10 8 7 9 10 10 11 13 11 10 11 14 11 6 5 8 7 6 8 9 9 8 9 9 6 8 9 8 8 8 8 9 10 8 7 7 7 8 9 10 10 11 11 10 10 8
5 6 7 8 9 9 7 8 10 9 7 7 7 6 4 5 8 8 8 7 5 4 4 4 5 6 5 6 8 9 9 9 9 8 8 9 8 8 9 10 10 10 9 8 6 7 9 10 10 11 11 9 9 13 12 8 8 9 8 7 6 7 8 8 9 8 7 9 9 7 8 7 6 7 8 8 7 8 8 7 7 7 7 6 5 5 7 7
5 6 7 7 7 8 9 10 9 8 7 7 7 6 4 6 7 8 8 7 5 4 4 4 5 5 5 5 5 7 8 9 9 9 9 8 7 7 8 8 8 8 9 9 8 6 7 9 10 10 11 10 7 7 8 7 8 10 9 8 8 7 7 8 8 8 8 9 9 8 8 7 7 8 9 8 8 7 7 5 5 5 4 4 7 8 9 9
5 5 6 7 6 8 10 11 10 8 7 8 8 7 5 5 8 9 8 7 5 5 4 4 5 5 5 6 6 6 6 7 8 9 10 10 8 6 6 6 7 7 9 9 9 7 6 7 9 10 10 10 8 6 5 4 5 7 8 8 9 8 7 8 9 9 9 8 8 8 7 7 8 8 7 7 7 6 5 4 4 6 6 9 11 10 9 9
6 5 7 7 6 8 10 10 10 9 9 9 7 5 4 5 8 9 9 7 5 5 5 4 5 5 5 6 6 5 5 6 6 7 8 10 10 9 8 6 6 6 7 8 8 7 7 7 9 10 10 10 9 9 9 8 6 7 9 10 9 8 8 9 9 8 8 8 8 8 7 8 8 7 7 8 7 6 7 8 9 10 10 10 8 7 8 8
6 5 7 7 5 8 10 10 10 8 8 9 7 5 6 7 8 9 9 8 6 5 5 4 5 5 5 5 5 5 4 5 6 6 7 8 9 10 10 9 7 5 6 7 8 8 7 6 8 10 10 10 11 11 12 13 11 10 11 10 7 7 8 8 8 8 7 8 8 7 7 8 8 8 8 9 9 10 12 12 11 10 8 8 7 8 8 8
7 5 7 6 5 8 9 8 9 8 7 7 7 6 6 7 9 9 8 7 7 5 4 5 5 5 4 4 5 5 4 4 5 6 6 7 8 8 9 11 10 7 5 5 7 7 6 6 8 10 10 10 11 12 13 14 14 12 10 9 7 7 8 8 9 8 8 9 9 8 8 9 8 9 10 10 10 10 9 9 8 7 7 8 8 8 8 8
8 6 7 6 5 8 8 6 6 7 8 8 7 6 6 7 9 9 7 6 6 6 5 4 5 4 4 4 4 4 4 4 5 6 6 6 8 8 8 10 11 10 8 5 5 6 6 6 6 8 10 10 11 13 13 13 13 11 11 10 7 7 8 8 9 9 8 9 10 9 9 8 8 9 9 10 10 9 9 8 7 7 7 8 8 7 7 8
8 6 6 6 6 6 6 5 5 5 7 9 8 6 7 8 9 8 7 6 6 6 5 3 4 4 3 4 4 4 5 5 5 7 8 7 8 8 8 9 10 10 10 7 5 5 6 6 5 5 8 9 10 13 13 12 11 11 12 11 8 7 9 9 8 9 9 9 9 9 8 7 8 9 9 9 9 9 9 8 7 7 8 8 8 7 6 6
8 6 5 5 5 6 5 4 4 5 8 11 9 8 8 9 8 7 6 5 5 6 4 3 3 3 3 4 4 4 4 6 6 7 8 9 10 10 9 9 9 9 10 9 7 5 5 7 5 4 7 9 8 12 13 11 10 11 11 10 8 7 8 8 7 7 8 8 8 9 9 9 8 9 9 9 9 9 8 7 7 8 7 7 6 5 5 6
8 7 5 4 5 6 5 4 3 4 8 9 8 7 8 9 8 7 6 5 4 4 4 3 3 3 3 4 4 4 4 6 8 9 9 10 11 11 11 11 10 10 10 10 9 7 5 6 5 4 7 8 8 12 14 10 10 12 11 9 9 9 9 9 8 7 7 8 8 8 9 9 8 8 9 9 8 7 7 6 6 7 6 5 5 5 5 5
7 7 5 4 5 6 5 4 3 4 6 7 6 6 7 7 5 5 5 4 4 3 4 4 3 3 3 4 4 4 4 6 8 10 11 10 9 10 11 12 13 11 10 10 10 8 6 6 5 4 5 7 8 12 14 10 10 12 12 11 11 11 10 10 9 8 8 8 8 8 8 8 8 9 9 9 8 7 6 6 7 6 5 5 5 5 5 5
7 8 7 5 5 6 6 5 5 4 5 6 5 3 5 5 4 4 4 4 3 3 3 3 3 3 3 4 4 4 5 7 9 10 11 10 9 9 11 13 14 13 12 11 11 9 6 6 6 4 5 6 7 11 14 11 10 11 11 11 11 10 10 10 9 9 9 8 8 9 10 10 9 9 9 8 8 7 6 7 7 6 6 6 6 5 4 5
8 8 8 6 6 6 6 7 6 4 3 5 4 3 3 3 3 4 4 4 3 4 4 3 3 4 4 4 4 5 6 8 10 10 10 9 9 10 10 11 13 15 14 12 12 10 7 5 5 4 5 6 6 10 13 11 10 11 10 10 10 8 8 9 8 9 10 9 9 10 11 10 9 9 9 8 8 8 7 7 7 6 6 6 6 5 4 5
9 9 8 7 6 6 6 7 6 4 3 3 3 3 4 3 4 5 4 3 4 4 4 3 2 4 5 4 4 6 7 8 10 10 9 9 9 9 10 10 11 14 16 13 10 10 8 6 5 4 6 7 6 10 14 11 10 11 8 8 9 8 8 8 8 10 10 9 9 9 10 10 9 9 9 8 9 8 7 7 7 6 6 6 6 5 5 5
Height
5801 5798 5795 5792 5789 5786 5782 5779 5776 5773 5769 5765 5762 5759 5756 5753 5751 5749 5747 5745 5743 5742 5741 5740 5739 5739 5738 5738 5737 5737 5738 5738 5739 5740 5741 5742 5743 5745 5747 5749 5751 5753 5755 5757 5758 5760 5762 5764 5765 5767 5769 5770 5772 5774 5776 5778 5780 5781 5783 5784 5785 5787 5788 5789 5791 5793 5794 5795 5796 5798 5799 5801 5801 5802 5802 5802 5803 5804 5804 5804 5804 5804 5804 5803 5804 5804 5804 5805
5800 5797 5794 5791 5788 5784 5782 5779 5776 5772 5769 5765 5762 5759 5756 5754 5752 5750 5748 5747 5745 5743 5743 5742 5742 5741 5741 5740 5740 5740 5741 5741 5742 5743 5744 5745 5746 5747 5749 5751 5752 5754 5756 5758 5759 5761 5762 5764 5766 5767 5769 5771 5773 5775 5776 5778 5779 5781 5782 5784 5785 5787 5788 5789 5791 5792 5793 5794 5796 5798 5799 5800 5801 5800 5801 5802 5802 5803 5803 5803 5804 5804 5804 5804 5804 5804 5804 5804
5799 5796 5793 5790 5787 5784 5781 5779 5775 5772 5768 5765 5762 5760 5757 5755 5753 5752 5750 5748 5747 5746 5745 5745 5744 5744 5744 5744 5744 5744 5744 5744 5745 5745 5746 5747 5748 5749 5751 5753 5754 5756 5757 5759 5760 5761 5763 5764 5766 5768 5769 5771 5774 5775 5777 5778 5780 5782 5783 5785 5786 5787 5788 5789 5790 5791 5793 5794 5796 5798 5799 5800 5800 5800 5801 5801 5802 5802 5803 5803 5803 5804 5804 5804 5804 5804 5804 5803
5799 5795 5792 5789 5786 5784 5782 5779 5775 5771 5768 5766 5763 5761 5758 5756 5755 5753 5752 5751 5750 5749 5748 5748 5747 5747 5747 5747 5747 5747 5747 5747 5747 5748 5749 5750 5751 5752 5753 5755 5756 5757 5758 5760 5761 5762 5764 5765 5767 5768 5770 5772 5774 5776 5777 5779 5780 5782 5784 5785 5786 5787 5788 5789 5789 5790 5793 5795 5797 5798 5798 5799 5799 5800 5801 5801 5801 5802 5803 5803 5803 5804 5804 5804 5804 5804 5804 5803
5798 5795 5792 5789 5787 5785 5782 5778 5775 5772 5769 5767 5764 5762 5760 5758 5757 5756 5755 5754 5753 5752 5752 5751 5751 5750 5750 5750 5750 5750 5750 5750 5750 5751 5752 5753 5753 5754 5756 5757 5758 5759 5760 5761 5762 5763 5764 5766 5767 5769 5770 5772 5774 5776 5777 5779 5781 5783 5784 5785 5786 5787 5788 5789 5789 5791 5793 5795 5796 5797 5798 5798 5799 5800 5801 5801 5802 5802 5803 5803 5803 5803 5803 5803 5803 5804 5804 5803
5798 5794 5792 5790 5787 5785 5782 5778 5775 5772 5770 5768 5766 5764 5762 5761 5760 5759 5758 5757 5756 5756 5755 5755 5754 5754 5754 5753 5753 5753 5753 5753 5754 5754 5755 5756 5756 5757 5758 5759 5760 5761 5761 5762 5763 5765 5766 5767 5768 5769 5771 5772 5773 5775 5777 5779 5781 5783 5784 5785 5786 5787 5789 5789 5790 5791 5793 5795 5795 5796 5797 5798 5799 5800 5801 5802 5802 5803 5803 5803 5803 5803 5803 5803 5803 5804 5804 5804
5797 5795 5793 5790 5788 5785 5782 5779 5776 5773 5771 5769 5768 5766 5765 5764 5763 5762 5761 5760 5759 5759 5759 5758 5757 5757 5757 5757 5756 5756 5756 5756 5756 5757 5758 5758 5759 5760 5761 5761 5762 5763 5764 5765 5766 5766 5767 5768 5770 5771 5772 5774 5775 5777 5779 5780 5782 5783 5784 5785 5786 5788 5789 5790 5790 5791 5792 5794 5795 5796 5797 5798 5799 5800 5801 5803 5803 5804 5804 5803 5803 5804 5803 5803 5804 5804 5804 5804
5797 5796 5793 5791 5788 5785 5782 5779 5777 5774 5773 5771 5770 5768 5767 5767 5766 5765 5764 5763 5763 5762 5762 5761 5761 5760 5760 5760 5760 5760 5760 5759 5759 5759 5760 5760 5761 5762 5763 5764 5765 5765 5766 5767 5768 5768 5769 5771 5772 5773 5775 5776 5777 5778 5779 5781 5783 5784 5784 5786 5787 5788 5789 5789 5790 5791 5791 5792 5794 5795 5797 5798 5799 5800 5802 5803 5804 5805 5804 5803 5803 5804 5804 5804 5804 5804 5804 5805
5798 5797 5794 5791 5788 5786 5783 5781 5778 5776 5775 5774 5772 5771 5771 5769 5768 5768 5767 5766 5766 5765 5765 5764 5764 5763 5763 5763 5763 5763 5762 5762 5762 5762 5762 5762 5763 5764 5765 5766 5766 5767 5768 5768 5769 5770 5772 5773 5774 5775 5776 5778 5779 5779 5780 5782 5783 5784 5785 5786 5787 5788 5788 5789 5789 5790 5790 5791 5792 5794 5795 5797 5798 5800 5801 5802 5803 5804 5805 5804 5804 5804 5804 5804 5805 5805 5805 5805
5799 5797 5794 5791 5789 5787 5784 5782 5780 5779 5777 5776 5775 5775 5774 5772 5771 5771 5770 5770 5769 5768 5768 5767 5766 5766 5766 5765 5765 5765 5765 5765 5765 5765 5765 5766 5766 5766 5766 5767 5767 5768 5768 5769 5770 5771 5773 5774 5775 5776 5777 5779 5780 5780 5781 5782 5783 5783 5785 5786 5787 5787 5788 5789 5789 5790 5790 5791 5791 5793 5794 5795 5797 5799 5801 5802 5803 5804 5805 5805 5804 5805 5805 5805 5805 5805 5805 5806
5799 5798 5795 5792 5790 5788 5786 5784 5782 5781 5780 5779 5778 5778 5777 5775 5774 5774 5773 5773 5772 5771 5770 5770 5769 5769 5768 5768 5768 5768 5767 5767 5768 5768 5768 5768 5769 5769 5769 5769 5769 5770 5770 5770 5771 5772 5773 5774 5775 5777 5778 5780 5780 5781 5781 5782 5783 5784 5784 5785 5786 5786 5787 5789 5790 5791 5791 5790 5791 5792 5793 5794 5796 5798 5800 5800 5802 5804 5805 5805 5805 5805 5806 5805 5805 5805 5805 5805
5800 5798 5796 5793 5791 5789 5787 5785 5784 5783 5782 5782 5781 5781 5780 5779 5778 5777 5776 5775 5774 5774 5773 5772 5772 5771 5771 5771 5771 5770 5770 5770 5770 5770 5770 5770 5771 5771 5772 5772 5772 5772 5772 5772 5773 5773 5774 5775 5776 5777 5778 5779 5780 5781 5782 5782 5783 5784 5785 5786 5785 5785 5787 5788 5790 5791 5791 5790 5790 5791 5792 5794 5796 5797 5798 5799 5801 5803 5804 5805 5805 5805 5806 5806 5805 5805 5804 5804
5800 5799 5797 5794 5792 5790 5789 5787 5786 5785 5785 5785 5784 5783 5782 5781 5781 5780 5779 5778 5777 5776 5776 5775 5774 5774 5773 5773 5773 5773 5773 5773 5773 5773 5773 5773 5773 5773 5774 5774 5774 5773 5774 5774 5775 5775 5776 5776 5777 5777 5778 5779 5780 5781 5782 5782 5783 5784 5785 5785 5785 5785 5787 5788 5789 5790 5790 5790 5790 5791 5792 5793 5794 5796 5797 5799 5800 5802 5803 5804 5805 5805 5805 5805 5804 5803 5802 5802
5801 5800 5798 5795 5793 5791 5790 5789 5788 5788 5788 5787 5787 5786 5785 5784 5783 5782 5781 5780 5780 5779 5778 5778 5777 5777 5776 5776 5776 5775 5775 5775 5775 5775 5775 5775 5775 5775 5775 5775 5775 5775 5775 5776 5776 5777 5777 5778 5778 5779 5779 5780 5780 5781 5782 5782 5782 5784 5785 5785 5785 5785 5786 5786 5789 5789 5789 5789 5790 5791 5792 5792 5794 5795 5797 5798 5799 5800 5801 5803 5803 5804 5804 5803 5802 5801 5800 5800
5802 5801 5799 5797 5794 5793 5792 5791 5790 5790 5790 5790 5789 5788 5787 5786 5786 5785 5784 5783 5782 5781 5781 5780 5780 5779 5779 5778 5778 5778 5777 5777 5777 5777 5777 5777 5777 5777 5777 5777 5777 5777 5777 5777 5778 5778 5778 5779 5780 5780 5781 5781 5781 5781 5782 5782 5782 5783 5784 5784 5784 5784 5785 5786 5788 5789 5788 5789 5789 5790 5791 5792 5793 5795 5796 5798 5798 5798 5798 5799 5799 5799 5800 5799 5799 5799 5799 5799
5803 5802 5800 5798 5796 5794 5794 5793 5793 5792 5792 5792 5791 5791 5789 5789 5788 5787 5786 5785 5784 5784 5783 5782 5782 5782 5781 5780 5780 5780 5780 5779 5779 5779 5779 5779 5779 5778 5778 5778 5779 5779 5779 5779 5779 5779 5779 5780 5782 5782 5782 5782 5782 5781 5781 5781 5781 5782 5782 5783 5782 5783 5784 5785 5787 5788 5788 5788 5789 5790 5790 5791 5793 5794 5795 5796 5795 5795 5795 5795 5796 5795 5795 5795 5796 5797 5798 5799
5803 5802 5801 5799 5797 5796 5795 5795 5795 5795 5794 5794 5794 5793 5792 5791 5790 5789 5788 5787 5786 5785 5785 5784 5784 5784 5783 5783 5783 5782 5782 5781 5781 5780 5780 5780 5780 5780 5780 5780 5780 5780 5781 5781 5781 5781 5782 5782 5783 5783 5783 5782 5782 5781 5781 5781 5780 5780 5781 5781 5781 5781 5782 5784 5786 5787 5787 5787 5788 5789 5790 5790 5791 5793 5793 5793 5793 5793 5793 5794 5794 5794 5793 5793 5795 5797 5799 5800
5804 5803 5801 5800 5799 5798 5797 5797 5797 5797 5797 5796 5796 5795 5794 5793 5792 5791 5790 5789 5788 5787 5787 5786 5786 5786 5785 5785 5784 5784 5783 5783 5782 5782 5781 5781 5782 5782 5782 5782 5782 5782 5783 5783 5783 5783 5783 5783 5782 5782 5782 5782 5781 5781 5781 5780 5780 5779 5779 5779 5779 5780 5781 5783 5785 5785 5786 5786 5787 5788 5789 5790 5790 5791 5791 5791 5791 5792 5792 5793 5793 5794 5794 5795 5796 5798 5799 5800
5804 5803 5802 5801 5800 5799 5799 5799 5799 5799 5799 5798 5798 5797 5796 5796 5795 5794 5793 5791 5790 5789 5789 5788 5788 5787 5787 5786 5786 5785 5784 5784 5784 5783 5783 5783 5783 5784 5784 5783 5783 5783 5784 5783 5783 5783 5782 5782 5782 5782 5781 5781 5780 5780 5779 5779 5778 5778 5778 5778 5778 5779 5780 5781 5783 5784 5785 5786 5786 5787 5788 5789 5789 5790 5790 5790 5790 5791 5792 5793 5794 5795 5797 5798 5799 5800 5800 5799
5805 5804 5803 5802 5801 5801 5800 5800 5800 5800 5800 5800 5799 5799 5798 5798 5797 5796 5795 5794 5792 5792 5791 5790 5789 5788 5788 5787 5787 5786 5786 5786 5785 5785 5785 5785 5785 5785 5784 5784 5784 5784 5784 5784 5783 5783 5782 5782 5781 5781 5780 5780 5779 5778 5777 5777 5776 5776 5776 5776 5776 5777 5778 5780 5781 5782 5783 5785 5785 5786 5787 5788 5788 5788 5788 5789 5789 5791 5792 5793 5794 5794 5796 5797 5797 5798 5797 5796
5805 5804 5804 5803 5803 5802 5802 5802 5802 5802 5802 5802 5801 5800 5799 5799 5799 5798 5797 5796 5795 5794 5793 5792 5791 5790 5789 5789 5788 5788 5788 5787 5787 5787 5787 5786 5786 5786 5785 5785 5784 5784 5785 5784 5784 5784 5783 5782 5782 5781 5780 5779 5778 5777 5776 5775 5774 5773 5773 5773 5773 5774 5775 5778 5779 5780 5782 5783 5784 5785 5786 5786 5786 5787 5787 5788 5789 5790 5792 5793 5793 5793 5794 5794 5793 5793 5792 5792
5806 5805 5805 5804 5804 5803 5803 5803 5803 5803 5803 5803 5802 5801 5800 5800 5801 5800 5800 5798 5797 5796 5795 5794 5793 5792 5791 5791 5790 5791 5790 5789 5789 5788 5788 5787 5787 5787 5786 5786 5785 5785 5785 5785 5785 5785 5784 5783 5782 5781 5780 5778 5777 5775 5773 5771 5770 5770 5769 5769 5769 5770 5771 5773 5776 5778 5780 5781 5783 5784 5785 5785 5785 5785 5786 5787 5789 5791 5792 5793 5792 5791 5792 5792 5792 5791 5791 5792
5806 5806 5805 5805 5805 5805 5804 5804 5804 5804 5804 5804 5803 5802 5802 5802 5802 5802 5802 5800 5798 5797 5797 5796 5795 5794 5793 5792 5792 5792 5791 5790 5790 5789 5789 5788 5788 5788 5788 5787 5787 5787 5787 5787 5786 5785 5783 5782 5781 5780 5778 5776 5774 5772 5770 5769 5767 5766 5766 5766 5766 5766 5767 5768 5772 5775 5777 5779 5781 5783 5784 5784 5784 5784 5785 5787 5789 5790 5791 5791 5791 5791 5792 5793 5792 5790 5791 5793
5806 5806 5806 5806 5806 5806 5806 5805 5805 5805 5805 5805 5804 5804 5804 5804 5804 5804 5803 5802 5801 5800 5799 5798 5797 5796 5795 5795 5794 5794 5792 5791 5791 5791 5790 5790 5789 5789 5789 5789 5789 5788 5788 5786 5785 5783 5782 5781 5780 5779 5777 5775 5773 5771 5769 5767 5765 5764 5763 5763 5763 5763 5763 5765 5767 5771 5774 5776 5779 5781 5782 5782 5782 5783 5784 5786 5787 5788 5789 5788 5788 5789 5790 5792 5791 5789 5790 5792
5806 5806 5807 5807 5807 5807 5807 5806 5806 5806 5806 5806 5805 5805 5806 5806 5806 5805 5805 5804 5803 5801 5801 5800 5798 5798 5797 5797 5796 5794 5793 5793 5792 5792 5791 5791 5791 5790 5790 5789 5789 5788 5787 5785 5784 5783 5782 5781 5780 5779 5777 5775 5774 5771 5769 5766 5765 5763 5761 5761 5761 5761 5761 5762 5765 5768 5771 5774 5777 5779 5781 5781 5781 5782 5783 5785 5786 5787 5787 5786 5786 5787 5788 5789 5789 5789 5790 5790
5806 5807 5807 5807 5807 5807 5808 5807 5807 5807 5807 5807 5807 5807 5807 5807 5807 5807 5806 5805 5804 5802 5802 5800 5800 5799 5798 5797 5796 5794 5794 5794 5793 5793 5792 5792 5791 5790 5790 5789 5788 5787 5787 5786 5785 5784 5783 5782 5781 5779 5778 5776 5774 5771 5769 5766 5764 5762 5761 5759 5759 5759 5759 5761 5763 5765 5769 5772 5775 5778 5779 5780 5781 5782 5782 5783 5784 5785 5786 5785 5786 5786 5787 5788 5788 5788 5788 5789
5807 5807 5807 5808 5808 5808 5808 5808 5808 5808 5808 5808 5808 5808 5808 5808 5808 5807 5806 5805 5804 5803 5802 5801 5800 5800 5799 5798 5797 5795 5794 5794 5793 5793 5793 5792 5791 5790 5789 5788 5788 5788 5787 5786 5785 5784 5783 5782 5781 5779 5779 5777 5775 5773 5770 5766 5764 5762 5761 5760 5758 5758 5759 5760 5762 5764 5767 5770 5774 5776 5778 5779 5781 5782 5782 5782 5783 5784 5785 5785 5785 5786 5786 5787 5787 5787 5787 5787
5807 5807 5808 5808 5808 5808 5808 5808 5808 5808 5808 5809 5809 5809 5809 5809 5808 5808 5807 5806 5805 5804 5803 5802 5801 5800 5799 5798 5797 5796 5795 5794 5793 5793 5793 5792 5792 5791 5789 5789 5788 5788 5788 5787 5786 5785 5784 5782 5781 5780 5779 5778 5776 5774 5771 5767 5764 5762 5762 5760 5759 5758 5759 5760 5761 5764 5766 5769 5772 5775 5777 5779 5780 5781 5781 5782 5783 5783 5784 5784 5785 5785 5785 5786 5786 5786 5786 5786
5807 5807 5808 5808 5808 5808 5809 5809 5809 5809 5809 5809 5809 5809 5809 5809 5809 5808 5807 5806 5806 5804 5804 5803 5802 5801 5800 5799 5798 5797 5795 5794 5794 5794 5793 5793 5792 5791 5790 5790 5789 5789 5788 5788 5787 5785 5784 5783 5782 5781 5780 5778 5777 5774 5771 5768 5766 5764 5762 5761 5759 5759 5760 5761 5762 5764 5766 5769 5771 5773 5775 5777 5779 5780 5780 5781 5783 5784 5784 5784 5784 5784 5785 5784 5784 5784 5784 5783
5807 5808 5808 5808 5809 5809 5809 5809 5809 5809 5810 5810 5810 5810 5810 5809 5809 5808 5807 5807 5806 5805 5804 5804 5803 5802 5801 5800 5798 5797 5796 5795 5795 5794 5793 5792 5792 5792 5792 5791 5790 5790 5789 5788 5787 5786 5785 5784 5783 5781 5780 5778 5776 5775 5773 5770 5768 5766 5764 5762 5760 5760 5760 5762 5763 5765 5766 5768 5771 5773 5774 5776 5778 5778 5779 5781 5783 5784 5784 5784 5784 5784 5784 5783 5783 5782 5782 5781
5807 5808 5808 5808 5809 5809 5809 5810 5810 5810 5810 5810 5810 5810 5810 5810 5809 5808 5808 5807 5806 5806 5805 5804 5803 5803 5802 5800 5799 5798 5797 5796 5795 5794 5793 5792 5792 5792 5792 5791 5791 5790 5790 5789 5788 5787 5786 5785 5783 5781 5779 5777 5776 5775 5773 5772 5770 5768 5766 5764 5762 5761 5761 5763 5764 5765 5767 5769 5771 5772 5774 5775 5776 5777 5779 5780 5782 5783 5784 5784 5784 5783 5783 5783 5782 5782 5781 5780
5807 5808 5808 5808 5809 5809 5809 5810 5810 5810 5810 5810 5810 5810 5810 5810 5809 5809 5808 5807 5807 5807 5806 5805 5804 5803 5802 5801 5800 5799 5798 5797 5796 5795 5794 5793 5792 5791 5791 5791 5791 5791 5790 5789 5789 5788 5787 5785 5783 5781 5780 5778 5776 5775 5773 5773 5772 5770 5768 5766 5765 5763 5763 5764 5765 5767 5768 5770 5771 5772 5773 5774 5775 5777 5779 5780 5781 5782 5783 5783 5783 5782 5781 5781 5781 5780 5780 5778
5807 5808 5808 5808 5809 5809 5809 5810 5810 5810 5810 5810 5810 5810 5810 5810 5810 5809 5808 5808 5808 5808 5807 5806 5805 5803 5802 5801 5800 5799 5798 5797 5796 5796 5795 5794 5793 5792 5792 5792 5791 5791 5790 5790 5789 5788 5787 5786 5784 5782 5780 5779 5778 5777 5776 5775 5774 5772 5770 5769 5767 5766 5766 5766 5767 5768 5770 5771 5772 5773 5774 5775 5776 5777 5779 5780 5781 5781 5781 5780 5780 5780 5779 5779 5778 5778 5777 5776
5807 5808 5808 5808 5809 5809 5809 5810 5810 5810 5810 5810 5810 5811 5811 5810 5810 5810 5809 5809 5809 5808 5807 5806 5805 5804 5803 5802 5801 5800 5799 5798 5797 5796 5795 5794 5794 5793 5793 5793 5792 5791 5791 5790 5789 5789 5787 5786 5784 5783 5781 5781 5780 5779 5778 5777 5776 5774 5773 5772 5770 5769 5768 5769 5769 5770 5770 5771 5772 5773 5774 5775 5776 5778 5779 5780 5780 5780 5779 5778 5778 5777 5777 5776 5775 5774 5774 5773
5807 5808 5808 5808 5809 5809 5809 5810 5810 5810 5810 5810 5811 5811 5811 5811 5811 5810 5810 5810 5809 5809 5808 5807 5806 5805 5804 5802 5801 5800 5799 5798 5798 5797 5796 5795 5794 5794 5793 5793 5792 5792 5791 5790 5790 5789 5788 5786 5785 5784 5783 5782 5782 5781 5780 5779 5778 5776 5775 5775 5773 5772 5771 5771 5771 5771 5771 5772 5772 5773 5774 5775 5776 5778 5779 5779 5779 5779 5778 5777 5777 5776 5775 5773 5772 5771 5770 5769
5807 5808 5808 5808 5809 5809 5809 5810 5810 5811 5811 5811 5811 5812 5812 5812 5812 5811 5811 5811 5810 5809 5808 5808 5807 5806 5804 5803 5802 5801 5800 5799 5799 5798 5797 5796 5795 5794 5794 5793 5793 5792 5791 5791 5790 5789 5788 5787 5786 5785 5784 5783 5783 5782 5781 5780 5779 5778 5777 5777 5775 5774 5774 5773 5773 5772 5772 5772 5773 5774 5774 5775 5776 5777 5778 5778 5778 5778 5777 5777 5776 5775 5773 5772 5771 5769 5768 5767
5807 5807 5808 5808 5809 5809 5809 5809 5810 5811 5811 5811 5812 5812 5813 5813 5813 5812 5812 5812 5811 5810 5810 5809 5808 5807 5806 5804 5803 5802 5802 5801 5800 5799 5798 5797 5796 5795 5795 5794 5794 5793 5792 5791 5790 5790 5789 5788 5787 5786 5785 5784 5783 5783 5782 5781 5780 5779 5779 5778 5777 5776 5776 5775 5775 5774 5774 5774 5774 5774 5775 5775 5776 5776 5777 5777 5777 5777 5777 5776 5775 5774 5773 5771 5771 5770 5768 5767
5807 5807 5808 5808 5809 5809 5809 5809 5810 5811 5811 5812 5812 5812 5813 5813 5813 5813 5813 5813 5812 5812 5811 5810 5809 5808 5807 5805 5804 5803 5803 5802 5801 5800 5799 5798 5798 5797 5796 5795 5794 5794 5793 5792 5791 5790 5789 5788 5787 5786 5785 5784 5784 5783 5783 5782 5781 5780 5780 5779 5778 5778 5777 5777 5776 5776 5775 5775 5775 5775 5775 5776 5776 5776 5776 5776 5776 5776 5776 5775 5774 5773 5772 5771 5770 5769 5768 5766
5807 5807 5808 5808 5808 5809 5809 5809 5810 5811 5811 5812 5812 5813 5813 5814 5814 5814 5814 5814 5813 5813 5812 5811 5810 5809 5807 5806 5805 5804 5803 5802 5802 5801 5800 5799 5798 5798 5797 5796 5795 5794 5793 5792 5791 5790 5789 5789 5788 5787 5786 5784 5784 5783 5783 5782 5781 5781 5781 5780 5779 5779 5779 5778 5777 5777 5776 5776 5776 5776 5776 5776 5776 5776 5776 5776 5776 5775 5775 5774 5773 5772 5772 5771 5769 5768 5767 5765
5806 5807 5807 5808 5808 5808 5808 5809 5810 5811 5811 5812 5812 5813 5813 5814 5814 5814 5814 5814 5814 5813 5813 5812 5811 5810 5809 5807 5806 5805 5804 5803 5802 5801 5801 5800 5799 5798 5798 5797 5796 5795 5794 5793 5792 5790 5789 5789 5788 5787 5786 5785 5784 5783 5783 5782 5782 5782 5781 5781 5780 5780 5779 5779 5778 5778 5777 5777 5776 5776 5776 5776 5776 5776 5776 5775 5775 5774 5774 5773 5772 5771 5770 5769 5768 5766 5765 5763
5806 5806 5807 5807 5808 5808 5809 5809 5810 5811 5811 5812 5812 5813 5814 5814 5814 5815 5815 5814 5814 5814 5813 5812 5811 5810 5809 5808 5808 5806 5805 5804 5803 5802 5801 5801 5800 5799 5798 5797 5796 5795 5794 5794 5792 5791 5790 5789 5788 5787 5786 5785 5784 5783 5782 5782 5782 5782 5781 5781 5780 5780 5780 5779 5779 5778 5778 5777 5777 5776 5775 5775 5775 5775 5775 5774 5773 5773 5772 5771 5770 5769 5768 5767 5766 5764 5763 5761
5806 5806 5807 5807 5808 5808 5809 5809 5810 5810 5811 5812 5812 5813 5814 5814 5815 5815 5815 5814 5814 5814 5813 5812 5812 5811 5810 5809 5808 5807 5806 5805 5804 5803 5802 5801 5800 5799 5798 5797 5796 5796 5795 5794 5793 5792 5790 5789 5788 5787 5786 5785 5784 5784 5783 5782 5782 5782 5781 5781 5780 5780 5780 5779 5779 5778 5778 5777 5777 5776 5775 5775 5775 5774 5774 5773 5772 5771 5770 5770 5769 5768 5766 5765 5763 5762 5760 5759
5805 5806 5806 5807 5808 5808 5809 5809 5809 5810 5811 5812 5813 5813 5814 5814 5815 5815 5815 5814 5814 5814 5813 5813 5812 5811 5810 5810 5809 5808 5807 5806 5805 5804 5803 5802 5801 5800 5799 5798 5797 5796 5795 5794 5793 5792 5791 5790 5789 5788 5787 5786 5785 5784 5784 5783 5782 5782 5781 5780 5780 5779 5779 5778 5778 5777 5777 5777 5776 5775 5774 5774 5773 5773 5772 5771 5770 5769 5769 5768 5766 5765 5764 5763 5761 5760 5758 5757
5805 5805 5806 5806 5807 5808 5808 5809 5809 5810 5811 5812 5813 5813 5814 5814 5815 5815 5815 5814 5814 5814 5814 5813 5812 5812 5811 5810 5809 5808 5807 5806 5805 5804 5803 5802 5801 5800 5799 5798 5797 5796 5795 5794 5793 5792 5791 5790 5790 5789 5788 5787 5785 5784 5784 5783 5782 5781 5780 5780 5779 5779 5778 5778 5777 5776 5776 5775 5775 5774 5773 5772 5771 5771 5770 5769 5768 5767 5766 5765 5764 5763 5762 5761 5759 5758 5756 5754
5804 5804 5805 5806 5807 5808 5808 5808 5809 5810 5811 5812 5813 5813 5814 5814 5815 5815 5815 5814 5814 5814 5814 5813 5813 5812 5811 5810 5809 5808 5807 5806 5805 5804 5803 5802 5801 5800 5799 5798 5797 5796 5795 5794 5793 5792 5791 5790 5790 5789 5788 5787 5785 5784 5783 5783 5782 5781 5780 5779 5779 5778 5777 5777 5776 5775 5775 5774 5773 5772 5771 5770 5769 5769 5768 5767 5766 5765 5764 5763 5762 5761 5760 5758 5757 5755 5753 5751
5803 5804 5804 5805 5806 5807 5808 5808 5809 5810 5811 5812 5812 5813 5813 5814 5814 5815 5814 5814 5814 5814 5814 5813 5813 5812 5811 5810 5809 5808 5807 5806 5805 5803 5802 5801 5800 5799 5798 5798 5797 5796 5795 5794 5793 5792 5791 5790 5789 5788 5787 5786 5785 5784 5783 5782 5781 5781 5780 5779 5778 5777 5777 5776 5775 5774 5773 5773 5772 5771 5770 5769 5768 5767 5766 5766 5765 5764 5763 5762 5761 5759 5758 5756 5754 5752 5750 5748
5802 5803 5803 5804 5805 5806 5807 5808 5809 5810 5811 5812 5812 5813 5813 5814 5814 5814 5814 5814 5814 5814 5813 5813 5813 5812 5811 5810 5809 5808 5807 5806 5805 5803 5802 5801 5800 5799 5798 5797 5796 5795 5794 5793 5792 5792 5791 5790 5789 5788 5787 5786 5785 5784 5783 5782 5781 5780 5780 5779 5778 5777 5776 5776 5775 5774 5773 5772 5771 5770 5769 5768 5767 5766 5765 5764 5764 5763 5761 5760 5759 5757 5756 5754 5752 5750 5748 5746
5800 5801 5802 5803 5804 5805 5807 5808 5808 5809 5810 5811 5812 5813 5813 5814 5814 5814 5814 5814 5814 5814 5813 5813 5812 5812 5811 5810 5809 5808 5807 5806 5805 5803 5802 5800 5799 5799 5798 5797 5796 5795 5794 5793 5792 5791 5790 5789 5788 5788 5787 5786 5785 5784 5783 5782 5781 5780 5779 5779 5778 5777 5776 5775 5774 5773 5772 5771 5770 5769 5768 5767 5766 5765 5764 5763 5762 5761 5760 5758 5757 5755 5753 5751 5749 5747 5745 5743
5799 5800 5801 5803 5804 5805 5806 5807 5808 5809 5810 5811 5811 5812 5813 5813 5813 5813 5813 5813 5813 5813 5813 5813 5812 5811 5811 5810 5809 5808 5807 5806 5805 5803 5802 5800 5799 5798 5797 5796 5796 5794 5794 5793 5792 5791 5790 5789 5788 5787 5787 5786 5785 5784 5783 5782 5781 5780 5779 5779 5778 5777 5776 5775 5774 5773 5771 5771 5770 5769 5767 5766 5765 5764 5763 5762 5761 5759 5758 5756 5755 5753 5751 5749 5747 5745 5743 5741
5798 5800 5801 5802 5803 5804 5805 5807 5808 5809 5809 5810 5811 5811 5812 5812 5813 5813 5813 5813 5813 5813 5813 5812 5811 5810 5810 5809 5808 5807 5806 5805 5804 5803 5802 5801 5799 5798 5797 5796 5795 5794 5793 5793 5792 5791 5790 5789 5788 5787 5786 5785 5785 5784 5782 5781 5780 5779 5779 5778 5777 5776 5775 5774 5773 5772 5771 5770 5768 5768 5767 5766 5764 5763 5762 5761 5759 5758 5756 5754 5753 5751 5749 5747 5745 5743 5741 5738
5797 5799 5800 5801 5802 5804 5805 5806 5807 5808 5809 5809 5810 5811 5811 5811 5812 5812 5812 5812 5812 5812 5811 5811 5810 5810 5809 5808 5807 5806 5805 5805 5804 5803 5802 5801 5800 5798 5797 5796 5795 5794 5793 5792 5792 5791 5790 5789 5788 5787 5786 5785 5784 5783 5782 5781 5779 5779 5778 5777 5776 5775 5774 5772 5771 5770 5770 5769 5767 5766 5766 5765 5763 5762 5760 5759 5757 5756 5754 5752 5751 5749 5747 5746 5743 5741 5738 5736
5796 5797 5799 5800 5801 5803 5804 5805 5806 5807 5808 5809 5809 5810 5810 5810 5811 5811 5811 5811 5811 5811 5810 5810 5809 5809 5808 5807 5806 5805 5804 5804 5803 5802 5801 5800 5799 5798 5797 5796 5795 5794 5793 5792 5791 5790 5790 5789 5788 5787 5786 5785 5784 5783 5781 5780 5779 5778 5777 5776 5775 5774 5773 5771 5770 5769 5769 5768 5766 5765 5764 5763 5762 5760 5759 5758 5756 5754 5752 5751 5749 5747 5745 5743 5741 5739 5736 5734